When you browse on this site, cookies collect data to enhance your experience and personalize the content and advertising you see.
Visit our Privacy Policy to learn more. By continuing to use the site, you agree to this use of cookies and data.
  • In Belgium
  • List of Countries
  • For 7 days
  • Water Temperature
  • Weather Map
  • Weather Widgets
  • user-avatar
    Login

    Hourly Weather Zabegalovka

    Today, 6 June, Saturday

    Time Temperature Precipitation Wind Pressure Humidity
    00:00 +10°C° 0 mm 2 mps 743 mmHg 97%
    01:00 +9°C° 0 mm 2 mps 743 mmHg 98%
    02:00 +9°C° 0 mm 2 mps 743 mmHg 98%
    03:00 +9°C° 0 mm 2 mps 743 mmHg 97%
    04:00 +9°C° 0 mm 2 mps 743 mmHg 97%
    05:00 +10°C° 0 mm 2 mps 743 mmHg 96%
    06:00 +11°C° 0 mm 3 mps 744 mmHg 93%
    07:00 +12°C° 0 mm 3 mps 744 mmHg 89%
    08:00 +13°C° 0 mm 3 mps 744 mmHg 86%
    09:00 +16°C° 0 mm 3 mps 744 mmHg 78%
    10:00 +18°C° 0 mm 3 mps 744 mmHg 69%
    11:00 +19°C° 0 mm 4 mps 744 mmHg 61%
    12:00 +20°C° 0 mm 4 mps 744 mmHg 59%
    13:00 +21°C° 0 mm 4 mps 744 mmHg 57%
    14:00 +22°C° 0 mm 4 mps 744 mmHg 54%
    15:00 +22°C° 0 mm 4 mps 744 mmHg 58%
    16:00 +21°C° 0 mm 3 mps 743 mmHg 63%
    17:00 +21°C° 0 mm 3 mps 743 mmHg 67%
    18:00 +20°C° 0.1 mm 3 mps 743 mmHg 75%
    19:00 +19°C° 0.1 mm 3 mps 744 mmHg 84%
    20:00 +17°C° 0.1 mm 2 mps 744 mmHg 92%
    21:00 +17°C° 0 mm 2 mps 744 mmHg 94%
    22:00 +16°C° 0 mm 2 mps 744 mmHg 96%
    23:00 +16°C° 0 mm 2 mps 744 mmHg 97%

    Tomorrow, 7 June, Sunday

    Time Temperature Precipitation Wind Pressure Humidity
    00:00 +15°C° 0 mm 1 mps 745 mmHg 98%
    01:00 +15°C° 0 mm 1 mps 745 mmHg 98%
    02:00 +14°C° 0 mm 1 mps 746 mmHg 98%
    03:00 +15°C° 0 mm 1 mps 746 mmHg 97%
    04:00 +16°C° 0 mm 1 mps 746 mmHg 96%
    05:00 +16°C° 0 mm 1 mps 747 mmHg 95%
    06:00 +19°C° 0 mm 1 mps 747 mmHg 88%
    07:00 +21°C° 0 mm 1 mps 748 mmHg 80%
    08:00 +22°C° 0 mm 1 mps 748 mmHg 72%
    09:00 +23°C° 0 mm 1 mps 748 mmHg 66%
    10:00 +25°C° 0 mm 1 mps 749 mmHg 60%
    11:00 +26°C° 0 mm 2 mps 749 mmHg 53%
    12:00 +26°C° 0 mm 2 mps 749 mmHg 51%
    13:00 +26°C° 0 mm 2 mps 749 mmHg 48%
    14:00 +27°C° 0 mm 2 mps 749 mmHg 46%
    15:00 +26°C° 0 mm 2 mps 749 mmHg 48%
    16:00 +26°C° 0 mm 1 mps 749 mmHg 51%
    17:00 +26°C° 0 mm 1 mps 749 mmHg 53%
    18:00 +24°C° 0 mm 1 mps 749 mmHg 59%
    19:00 +21°C° 0 mm 1 mps 749 mmHg 66%
    20:00 +19°C° 0 mm 1 mps 749 mmHg 72%
    21:00 +19°C° 0 mm 1 mps 750 mmHg 73%
    22:00 +18°C° 0 mm 1 mps 750 mmHg 75%
    23:00 +16°C° 0 mm 1 mps 750 mmHg 77%

    Day after tomorrow, 8 June, Monday

    Time Temperature Precipitation Wind Pressure Humidity
    00:00 +16°C° 0 mm 1 mps 750 mmHg 79%
    01:00 +16°C° 0 mm 1 mps 750 mmHg 82%
    02:00 +15°C° 0 mm 1 mps 750 mmHg 84%
    03:00 +16°C° 0 mm 1 mps 750 mmHg 85%
    04:00 +18°C° 0 mm 1 mps 750 mmHg 85%
    05:00 +19°C° 0 mm 1 mps 751 mmHg 85%
    06:00 +19°C° 0 mm 2 mps 751 mmHg 80%
    07:00 +21°C° 0 mm 2 mps 751 mmHg 74%
    08:00 +24°C° 0 mm 2 mps 751 mmHg 69%
    09:00 +25°C° 0 mm 2 mps 751 mmHg 65%
    10:00 +26°C° 0 mm 2 mps 751 mmHg 60%
    11:00 +27°C° 0 mm 2 mps 751 mmHg 55%
    12:00 +27°C° 0 mm 2 mps 750 mmHg 53%
    13:00 +28°C° 0 mm 2 mps 750 mmHg 52%
    14:00 +28°C° 0 mm 2 mps 750 mmHg 50%
    15:00 +28°C° 0 mm 2 mps 750 mmHg 53%
    16:00 +28°C° 0 mm 2 mps 750 mmHg 56%
    17:00 +28°C° 0 mm 1 mps 750 mmHg 59%
    18:00 +26°C° 0 mm 2 mps 750 mmHg 67%
    19:00 +24°C° 0 mm 2 mps 750 mmHg 75%
    20:00 +21°C° 0 mm 2 mps 750 mmHg 83%
    21:00 +20°C° 0 mm 2 mps 750 mmHg 87%
    22:00 +19°C° 0 mm 2 mps 750 mmHg 91%
    23:00 +19°C° 0 mm 2 mps 750 mmHg 95%

    9 June, Tuesday

    Time Temperature Precipitation Wind Pressure Humidity
    00:00 +18°C° 0 mm 2 mps 750 mmHg 95%
    01:00 +18°C° 0 mm 2 mps 750 mmHg 96%
    02:00 +18°C° 0 mm 2 mps 750 mmHg 96%
    03:00 +18°C° 0 mm 2 mps 750 mmHg 95%
    04:00 +19°C° 0 mm 2 mps 751 mmHg 93%
    05:00 +20°C° 0 mm 2 mps 751 mmHg 91%
    06:00 +21°C° 0.1 mm 2 mps 751 mmHg 87%
    07:00 +24°C° 0.1 mm 2 mps 751 mmHg 82%
    08:00 +25°C° 0.1 mm 2 mps 751 mmHg 78%
    09:00 +26°C° 0.5 mm 3 mps 751 mmHg 74%
    10:00 +27°C° 0.5 mm 3 mps 751 mmHg 70%
    11:00 +27°C° 0.5 mm 3 mps 751 mmHg 66%
    12:00 +28°C° 0.1 mm 3 mps 751 mmHg 63%
    13:00 +28°C° 0.1 mm 3 mps 751 mmHg 60%
    14:00 +28°C° 0.1 mm 3 mps 751 mmHg 58%
    15:00 +28°C° 0.1 mm 3 mps 751 mmHg 60%
    16:00 +27°C° 0.1 mm 3 mps 751 mmHg 63%
    17:00 +27°C° 0.1 mm 3 mps 751 mmHg 66%
    18:00 +25°C° 0.1 mm 3 mps 751 mmHg 73%
    19:00 +24°C° 0.1 mm 2 mps 751 mmHg 80%
    20:00 +21°C° 0.1 mm 2 mps 751 mmHg 86%
    21:00 +20°C° 0 mm 2 mps 751 mmHg 87%
    22:00 +19°C° 0 mm 2 mps 751 mmHg 88%
    23:00 +18°C° 0 mm 2 mps 751 mmHg 89%

    10 June, Wednesday

    Time Temperature Precipitation Wind Pressure Humidity
    00:00 +17°C° 0 mm 2 mps 751 mmHg 90%
    01:00 +17°C° 0 mm 2 mps 751 mmHg 91%
    02:00 +16°C° 0 mm 2 mps 751 mmHg 93%
    03:00 +17°C° 0 mm 2 mps 751 mmHg 91%
    04:00 +17°C° 0 mm 2 mps 751 mmHg 88%
    05:00 +18°C° 0 mm 2 mps 752 mmHg 86%
    06:00 +19°C° 0 mm 3 mps 752 mmHg 81%
    07:00 +21°C° 0 mm 3 mps 752 mmHg 75%
    08:00 +22°C° 0 mm 3 mps 752 mmHg 69%
    09:00 +24°C° 0 mm 3 mps 751 mmHg 66%
    10:00 +25°C° 0 mm 3 mps 751 mmHg 63%
    11:00 +26°C° 0 mm 3 mps 751 mmHg 60%
    12:00 +27°C° 0 mm 4 mps 751 mmHg 59%
    13:00 +27°C° 0 mm 4 mps 750 mmHg 58%
    14:00 +27°C° 0 mm 4 mps 750 mmHg 57%
    15:00 +27°C° 0 mm 4 mps 750 mmHg 59%
    16:00 +27°C° 0 mm 3 mps 749 mmHg 61%
    17:00 +27°C° 0 mm 3 mps 749 mmHg 63%
    18:00 +25°C° 0 mm 3 mps 749 mmHg 70%
    19:00 +23°C° 0 mm 2 mps 749 mmHg 77%
    20:00 +21°C° 0 mm 2 mps 749 mmHg 84%
    21:00 +20°C° 0 mm 2 mps 749 mmHg 88%
    22:00 +19°C° 0 mm 2 mps 749 mmHg 91%
    23:00 +18°C° 0 mm 2 mps 749 mmHg 95%

    11 June, Thursday

    Time Temperature Precipitation Wind Pressure Humidity
    00:00 +17°C° 0 mm 2 mps 749 mmHg 96%
    01:00 +17°C° 0 mm 2 mps 749 mmHg 96%
    02:00 +16°C° 0 mm 2 mps 749 mmHg 97%
    03:00 +17°C° 0 mm 2 mps 748 mmHg 95%
    04:00 +18°C° 0 mm 2 mps 748 mmHg 93%
    05:00 +18°C° 0 mm 2 mps 748 mmHg 91%
    06:00 +20°C° 0 mm 2 mps 748 mmHg 84%
    07:00 +21°C° 0 mm 2 mps 748 mmHg 77%
    08:00 +24°C° 0 mm 2 mps 748 mmHg 70%
    09:00 +25°C° 0 mm 3 mps 748 mmHg 66%
    10:00 +26°C° 0 mm 3 mps 747 mmHg 62%
    11:00 +27°C° 0 mm 3 mps 747 mmHg 57%
    12:00 +27°C° 0.1 mm 3 mps 747 mmHg 56%
    13:00 +28°C° 0.1 mm 3 mps 747 mmHg 56%
    14:00 +28°C° 0.1 mm 3 mps 746 mmHg 55%
    15:00 +27°C° 0.2 mm 3 mps 746 mmHg 59%
    16:00 +27°C° 0.2 mm 3 mps 746 mmHg 63%
    17:00 +26°C° 0.2 mm 3 mps 746 mmHg 67%
    18:00 +25°C° 0 mm 2 mps 746 mmHg 74%
    19:00 +23°C° 0 mm 2 mps 745 mmHg 80%
    20:00 +21°C° 0 mm 2 mps 745 mmHg 86%
    21:00 +21°C° 0 mm 1 mps 745 mmHg 88%
    22:00 +20°C° 0 mm 1 mps 745 mmHg 91%
    23:00 +19°C° 0 mm 1 mps 745 mmHg 93%
    Show more